Regional Weather Roundup
Issued by NWS Cleveland, OH

Home | Current Version | Previous Version | Graphics & Text | Print | Product List | Glossary On
Versions: 1 2 3 4 5 6 7 8 9 10 11 12 13 14 15 16 17 18 19 20 21 22 23 24 25 26 27 28 29 30 31 32 33 34 35 36 37 38 39 40 41 42 43 44 45 46 47 48 49 50
000
ASUS41 KCLE 251900
RWRCLE
OHIO REGIONAL WEATHER ROUNDUP
NATIONAL WEATHER SERVICE WILMINGTON, OH
300 PM EDT FRI JUL 25 2014

NOTE: "FAIR" INDICATES FEW OR NO CLOUDS BELOW 12,000 FEET WITH NO
SIGNIFICANT WEATHER AND/OR OBSTRUCTIONS TO VISIBILITY.

OHZ001>008-015>018-024>027-034-035-043-044-252000-
   NORTHWEST OHIO

CITY           SKY/WX    TMP DP  RH WIND       PRES   REMARKS
DEFIANCE       SUNNY     77  54  44 W10       30.03F
FINDLAY        SUNNY     77  53  43 S8        30.03F
TOLEDO EXPRESS MOSUNNY   77  53  43 S10       30.02F
TOLEDO METCALF PTSUNNY   75  51  43 SW12      30.03F
LIMA           MOSUNNY   75  52  44 SW6       30.05F
$$

OHZ009>014-019>023-028>033-038-089-252000-
   NORTHEAST OHIO

CITY           SKY/WX    TMP DP  RH WIND       PRES   REMARKS
CLE-HOPKINS    PTSUNNY   74  54  49 VRB5      30.06F
CLE-LAKEFRONT  SUNNY     73  54  51 NW7       30.03F
CUY CO. ARPT   PTSUNNY   73  55  53 NW9       30.06F
LORAIN-ELYRIA  MOSUNNY   78  49  35 VRB3      30.05F
ASHTABULA      MOSUNNY   73  55  53 VRB7      30.06F
AKRON-CANTON   MOSUNNY   76  48  37 SW7       30.05F
WOOSTER        NOT AVBL
MANSFIELD      SUNNY     74  50  42 VRB5      30.06F
YOUNGSTOWN     MOSUNNY   75  50  41 VRB6      30.05F
$$

OHZ042-051>053-060>062-070>072-077>081-252000-
  SOUTHWEST OHIO

CITY           SKY/WX    TMP DP  RH WIND       PRES   REMARKS
CINC-COVINGTON PTSUNNY   77  54  44 VRB5      30.05F
CINC-LUNKEN    MOSUNNY   78  57  48 S7        30.04F
HAMILTON       SUNNY     78  55  44 VRB3      30.05F
DAYTON         NOT AVBL
WRIGHT-PAT AFB PTSUNNY   73  53  50 W6        30.06F
DAYTON GENERAL MOSUNNY   75  54  47 VRB6      30.05F
WILMINGTON     PTSUNNY   74  55  51 S7        30.06F
$$

OHZ036-037-039>041-045>050-054>059-063>069-073>076-082>088-252000-
  CENTRAL AND SOUTHEAST OHIO

CITY           SKY/WX    TMP DP  RH WIND       PRES   REMARKS
COLUMBUS       PTSUNNY   77  52  41 CALM      30.04F
OSU AIRPORT    PTSUNNY   76  55  48 SW7       30.05F
BOLTON FIELD   MOSUNNY   73  57  56 SW8       30.05F
RICKENBACK AFB NOT AVBL
NEWARK         MOSUNNY   76  55  48 CALM      30.05F
MARION         SUNNY     75  50  41 S6        30.06F
LANCASTER      MOSUNNY   76  56  49 VRB7      30.06F
ZANESVILLE     PTSUNNY   74  53  48 VRB6      30.06F
NEW PHILLY     SUNNY     74  51  44 SW5       30.07S
$$


USA.gov is the U.S. government's official web portal to all federal, state and local government web resources and services.